Regional Weather Roundup
Issued by NWS Newport/Morehead, NC

Current Version | Previous Version | Graphics & Text | Print | Product List | Glossary Off
Versions: 1 2 3 4 5 6 7 8 9 10 11 12 13 14 15 16 17 18 19 20 21 22 23 24 25 26 27 28 29 30 31 32 33 34 35 36 37 38 39 40 41 42 43 44 45 46 47 48 49 50

000
ASUS42 KMHX 021313
RWRMHX
WEATHER ROUNDUP FOR EASTERN NORTH CAROLINA
NATIONAL WEATHER SERVICE NEWPORT/MOREHEAD CITY NC
900 AM EDT WED SEP 02 2015

NOTE: "FAIR" INDICATES FEW OR NO CLOUDS BELOW 12,000 FEET
WITH NO SIGNIFICANT WEATHER AND/OR OBSTRUCTIONS TO VISIBILITY

NCZ015>017-031-032-045>047-102-103-021400-
NORTH COAST

CITY           SKY/WX    TMP DP  RH WIND       PRES   REMARKS
EDENTON        SUNNY     76  71  83 CALM      30.06F
ELIZABETH CITY SUNNY     77  73  87 W5        30.06S
KITTY HAWK     SUNNY     80  76  89 CALM      30.05S
MANTEO         SUNNY     78  74  88 N5        30.06S

$$

NCZ045>047-081-094-103-104-021400-
CENTRAL COAST

CITY           SKY/WX    TMP DP  RH WIND       PRES   REMARKS
FRISCO         SUNNY     80  73  79 MISG      30.06S
SWANQUARTER      N/A     81 N/A N/A CALM      30.03S

$$

NCZ095-097-098-100-101-021400-
SOUTHERN COAST

CITY           SKY/WX    TMP DP  RH WIND       PRES   REMARKS
BEAUFORT       SUNNY     78  76  93 NW6       30.06F
CEDAR ISLAND     N/A     79 N/A N/A NW6       30.09S
JACKSONVILLE   SUNNY     78  73  84 W6        30.07S
PINEY ISLAND   SUNNY    N/A N/A N/A NW5       30.06S HAZE
WILMINGTON     SUNNY     79  74  84 W6        30.08S


$$

NCZ011>013-027>030-043-044-078>080-089-090>093-098-021400-
COASTAL PLAIN

CITY           SKY/WX    TMP DP  RH WIND       PRES   REMARKS
AHOSKIE        SUNNY     75  71  88 CALM      30.06F
CLINTON        SUNNY     74  74 100 W3        30.08F
ELIZABETHTOWN  SUNNY     78  73  86 W3        30.08F
GOLDSBORO      SUNNY     76  73  91 SW2       30.07S
GREENVILLE     SUNNY     75  75 100 CALM      30.08S
HAVELOCK       MOSUNNY   78  73  84 NW5       30.08S
KENANSVILLE      N/A     77  73  87 W3        30.09S
KINSTON        SUNNY     77  73  88 CALM      30.08  HAZE
NEW BERN       SUNNY     79  73  82 CALM      30.08S
RICHLANDS      SUNNY     75  70  83 CALM      30.08S
ROCKY MOUNT    SUNNY     78  72  81 CALM      30.07F
WASHINGTON     SUNNY     76  72  87 CALM      30.07S
WHITEVILLE     SUNNY     78  73  85 W3        30.08S

$$

AMZ130-135-150-152-154-156-158-170-250-252-270-ANZ085-086-088-633-658-670-021400-
MARINE OBSERVATIONS

STATION/POSITION TIME  TEMP    WIND        PRES    WAVE   SWELL
                       AIR SEA DIR/SP/G            HT/PER HT/PER
                 (UTC) (F)     (DEG/KT/KT) (MB)    (FT/S) (FT/S)
CHESAPEAKE LIGHT 1300   80     290/  4/  5 1018.2
64 E VA BEACH    1250   78 79  320/  4/  4 1017.2    2/10   2/10
DUCK             1200   76 78  300/  5/  5 1017.1
2 E DUCK         1211      79                N/A     1/ 9
OREGON INLET     1200   77 81  300/  4/  5 1017.9
13E OREGON INLT  1300      79                N/A     2/14
HATTERAS CG      1200   79 81  320/  8/  9 1017.6
DIAMOND BUOY     1150   80 83  330/  8/ 10 1017.9    2/10   2/10
CAPE LOOKOUT     1300   78     320/  6/  7 1017.8
BEAUFORT LAB     1200   77 80  350/  4/  6 1017.5
30 SE NEW RVR IN 1208   80 81  310/ 10/ 14 1018.5
30 SE NEW RVR IN 1225      81                N/A     2/ 9
27 SE WRIGHTSVLE 1200   77 81  300/ 12/ 14   N/A
5 SE WRIGHTSVLE  1208   79 82  300/ 14/ 17 1018.3
225 S CAPE HAT   1250   83 83  320/ 12/ 14 1018.1    2/14   2/14
41 SE CHARLESTON 1250   81 83  340/  8/ 10 1018.3    2/10   2/10

$$


USA.gov is the U.S. government's official web portal to all federal, state and local government web resources and services.